Pittsfield, MA

9:40 PM EST on November 14, 2019 (GMT -0500)
Pittsfield Municipal

Weather History for KPSF - July, 2019

Change the Weather History Date:

Monday, July 22, 2019

  Actual Average Record
Temperature  
Mean Temperature 67 °F 68 °F  
Max Temperature 72 °F 79 °F 98 °F (1930)
Min Temperature 62 °F 57 °F 46 °F (1965)
Degree Days  
Heating Degree Days 0 1  
Month to date heating degree days 0 22  
Since 1 June heating degree days 67 123  
Since 1 July heating degree days 0 22  
Cooling Degree Days 2 4  
Month to date cooling degree days 162 77  
Year to date cooling degree days 219 146  
Since 1 June cooling degree days 213 133  
Growing Degree Days 17 (Base 50)    
Moisture  
Dew Point 61 °F    
Average Humidity 73    
Maximum Humidity 93    
Minimum Humidity 53    
Precipitation  
Precipitation 1.32 in 0.16 in 1.93 in (1938)
Month to date precipitation 2.77 2.83  
Year to date precipitation 25.36 24.27  
Sea Level Pressure  
Sea Level Pressure 29.82 in    
Wind  
Wind Speed 5 mph (NE)    
Max Wind Speed 12 mph    
Max Gust Speed 17 mph    
Visibility 6 miles    
Events Rain    
T = Trace of Precipitation, MM = Missing Value Source: NWS Daily Summary

Daily Weather History Graph

Daily Weather History Graph

Search for Another Location

Airport or City:

Astronomy

Jul. 22, 2019 Rise Set
Actual Time 5:35 AM EDT 8:23 PM EDT
Civil Twilight 5:02 AM EDT 8:56 PM EDT
Nautical Twilight 4:20 AM EDT 9:37 PM EDT
Astronomical Twilight 3:32 AM EDT 10:25 PM EDT
Moon 11:36 PM EDT (7/22) 10:55 AM EDT (7/22)
Length of Visible Light 15h 53m
Length of Day
14h 47m
Waning Gibbous, 72% of the Moon is Illuminated
Jul 22
Waning Gibbous
Jul 24
Last Quarter
Jul 31
New
Aug 7
First Quarter
Aug 15
Full

Hourly Weather History & Observations

Time (EDT) Temp. Dew Point Humidity Pressure Visibility Wind Dir Wind Speed Gust Speed Precip Events Conditions
12:54 AM 71.1 °F 55.0 °F 57% 29.80 in 10.0 mi SW 4.6 mph - N/A   Clear
1:54 AM 72.0 °F 54.0 °F 53% 29.81 in 10.0 mi WNW 8.1 mph - N/A   Clear
2:54 AM 64.9 °F 55.9 °F 73% 29.83 in 10.0 mi SE 4.6 mph - N/A   Partly Cloudy
3:54 AM 69.1 °F 57.0 °F 65% 29.81 in 10.0 mi WSW 4.6 mph - N/A   Overcast
4:54 AM 64.9 °F 57.0 °F 75% 29.81 in 10.0 mi WSW 3.5 mph - N/A   Partly Cloudy
5:54 AM 64.0 °F 57.9 °F 80% 29.79 in 10.0 mi Calm Calm - N/A   Clear
6:54 AM 64.9 °F 59.0 °F 81% 29.82 in 10.0 mi Calm Calm - N/A   Partly Cloudy
7:54 AM 66.0 °F 60.1 °F 81% 29.84 in 10.0 mi Calm Calm - N/A   Mostly Cloudy
8:54 AM 66.9 °F 60.1 °F 79% 29.84 in 10.0 mi Calm Calm - N/A   Mostly Cloudy
9:54 AM 70.0 °F 61.0 °F 73% 29.83 in 10.0 mi Calm Calm - N/A   Overcast
10:36 AM 69.1 °F 61.0 °F 75% 29.92 in 1.8 mi NNW 3.5 mph - 0.03 in Rain Rain
10:44 AM 69.1 °F 64.0 °F 84% 29.92 in 3.0 mi NNE 3.5 mph - 0.04 in Rain Light Rain
10:54 AM 68.0 °F 64.0 °F 87% 29.85 in 3.0 mi Calm Calm - 0.07 in Rain Light Rain
11:54 AM 69.1 °F 64.9 °F 87% 29.83 in 10.0 mi NNE 3.5 mph - 0.01 in   Overcast
12:54 PM 69.1 °F 64.0 °F 84% 29.81 in 10.0 mi Variable 3.5 mph - 0.00 in   Overcast
1:54 PM 66.0 °F 63.0 °F 90% 29.81 in 8.0 mi NE 8.1 mph - 0.06 in Rain Light Rain
2:54 PM 66.0 °F 63.0 °F 90% 29.81 in 2.5 mi NE 8.1 mph - 0.09 in Rain Light Rain
2:57 PM 66.0 °F 63.0 °F 90% 29.87 in 3.0 mi ENE 6.9 mph - 0.00 in Rain Light Rain
3:05 PM 66.0 °F 63.0 °F 90% 29.87 in 6.0 mi ENE 8.1 mph - 0.01 in Rain Light Rain
3:26 PM 66.0 °F 63.0 °F 90% 29.86 in 9.0 mi NE 6.9 mph - 0.01 in Rain Light Rain
3:54 PM 64.9 °F 62.1 °F 90% 29.78 in 10.0 mi ENE 9.2 mph - 0.02 in Rain Light Rain
4:26 PM 64.9 °F 61.0 °F 87% 29.84 in 4.0 mi ENE 9.2 mph - 0.04 in Rain Rain
4:54 PM 64.9 °F 62.1 °F 90% 29.78 in 4.0 mi NNE 6.9 mph - 0.06 in Rain Light Rain
5:01 PM 64.9 °F 62.1 °F 90% 29.84 in 3.0 mi NE 8.1 mph - 0.01 in Rain Light Rain
5:14 PM 64.9 °F 62.1 °F 90% 29.84 in 6.0 mi NE 3.5 mph - 0.03 in Rain Light Rain
5:34 PM 64.0 °F 62.1 °F 93% 29.83 in 1.8 mi East 3.5 mph - 0.10 in Rain Heavy Rain
5:44 PM 64.0 °F 61.0 °F 90% 29.83 in 3.0 mi ENE 6.9 mph - 0.11 in Rain Light Rain
5:48 PM 64.4 °F 60.8 °F 88% 29.83 in 5.0 mi East 6.9 mph - 0.11 in Rain Light Rain
5:54 PM 64.0 °F 61.0 °F 90% 29.78 in 3.0 mi ENE 6.9 mph - 0.15 in Rain Heavy Rain
5:59 PM 64.0 °F 61.0 °F 90% 29.83 in 2.0 mi ENE 6.9 mph - 0.01 in Rain Rain
6:09 PM 64.0 °F 61.0 °F 90% 29.83 in 8.0 mi ENE 5.8 mph - 0.01 in Rain Light Rain
6:54 PM 64.0 °F 61.0 °F 90% 29.75 in 7.0 mi NE 8.1 mph - 0.03 in Rain Light Rain
7:54 PM 63.0 °F 60.1 °F 90% 29.74 in 4.0 mi ENE 10.4 mph - 0.11 in Rain Light Rain
8:10 PM 63.0 °F 61.0 °F 93% 29.80 in 9.0 mi ENE 8.1 mph - 0.01 in Rain Light Rain
8:54 PM 63.0 °F 61.0 °F 93% 29.76 in 7.0 mi NE 5.8 mph - 0.03 in Rain Light Rain
9:06 PM 63.0 °F 61.0 °F 93% 29.82 in 4.0 mi ENE 4.6 mph - 0.05 in Rain Rain
9:49 PM 62.6 °F 60.8 °F 94% 29.83 in 2.0 mi NE 10.4 mph - 0.29 in Rain Heavy Rain
9:54 PM 63.0 °F 61.0 °F 93% 29.77 in 2.0 mi NE 6.9 mph - 0.32 in Rain Rain
10:06 PM 63.0 °F 60.1 °F 90% 29.82 in 3.0 mi ENE 10.4 mph - 0.07 in Rain Rain
10:19 PM 63.0 °F 60.1 °F 90% 29.82 in 5.0 mi ENE 6.9 mph - 0.10 in Rain Light Rain
10:31 PM 63.0 °F 60.1 °F 90% 29.82 in 6.0 mi Variable 5.8 mph - 0.11 in Rain Light Rain
10:54 PM 62.1 °F 60.1 °F 93% 29.75 in 5.0 mi ENE 4.6 mph - 0.23 in Rain Light Rain
11:50 PM 62.6 °F 60.8 °F 94% 29.83 in 2.5 mi NNE 3.5 mph - 0.08 in Rain Heavy Rain
11:54 PM 62.1 °F 60.1 °F 93% 29.77 in 2.0 mi NE 4.6 mph - 0.11 in Rain Heavy Rain